QPF
0.00 0.01 0.01 0.02 0.02 0.02 0.04 0.05 0.06 0.06 0.06 0.11 0.15 0.12 0.08 0.06 0.07 0.07 0.05 0.05 0.04 0.04 0.03 0.03 0.03 0.03 0.02 0.02 0.02 0.01 0.01 0.00 0.00 0.00 0.01 0.01 0.01 0.01 0.02 0.04 0.04 0.04 0.03
0.01 0.01 0.01 0.01 0.02 0.02 0.03 0.05 0.05 0.05 0.06 0.08 0.12 0.14 0.08 0.05 0.05 0.06 0.06 0.06 0.05 0.04 0.04 0.04 0.03 0.03 0.03 0.02 0.02 0.01 0.01 0.00 0.00 0.00 0.01 0.01 0.02 0.02 0.02 0.03 0.04 0.05 0.05
0.01 0.01 0.01 0.01 0.01 0.02 0.02 0.03 0.05 0.05 0.07 0.09 0.13 0.15 0.11 0.09 0.08 0.07 0.06 0.07 0.07 0.06 0.05 0.05 0.04 0.03 0.03 0.04 0.03 0.02 0.01 0.01 0.01 0.00 0.01 0.01 0.01 0.02 0.02 0.03 0.04 0.04 0.05
0.00 0.01 0.01 0.01 0.01 0.02 0.02 0.03 0.04 0.06 0.07 0.08 0.11 0.13 0.11 0.10 0.08 0.06 0.06 0.06 0.06 0.07 0.08 0.07 0.06 0.04 0.03 0.04 0.04 0.04 0.02 0.02 0.01 0.01 0.01 0.01 0.01 0.01 0.02 0.02 0.03 0.04 0.04
0.01 0.01 0.01 0.01 0.01 0.02 0.03 0.03 0.04 0.05 0.07 0.08 0.09 0.11 0.11 0.09 0.08 0.07 0.06 0.06 0.05 0.05 0.06 0.07 0.08 0.07 0.05 0.04 0.04 0.04 0.03 0.02 0.02 0.02 0.01 0.01 0.01 0.01 0.01 0.02 0.03 0.03 0.04
0.01 0.01 0.01 0.01 0.01 0.01 0.02 0.03 0.04 0.05 0.06 0.07 0.08 0.09 0.10 0.10 0.08 0.07 0.08 0.08 0.06 0.04 0.04 0.04 0.05 0.06 0.07 0.06 0.04 0.03 0.03 0.03 0.03 0.02 0.02 0.02 0.01 0.01 0.01 0.01 0.02 0.03 0.04
0.01 0.01 0.01 0.01 0.01 0.01 0.01 0.02 0.03 0.04 0.06 0.06 0.07 0.08 0.09 0.09 0.08 0.06 0.06 0.07 0.07 0.05 0.03 0.03 0.04 0.04 0.04 0.05 0.06 0.05 0.03 0.03 0.03 0.03 0.03 0.03 0.02 0.02 0.02 0.02 0.02 0.03 0.04
0.01 0.01 0.01 0.01 0.01 0.01 0.01 0.02 0.03 0.04 0.05 0.06 0.06 0.07 0.08 0.07 0.06 0.06 0.05 0.05 0.06 0.05 0.03 0.03 0.03 0.04 0.03 0.03 0.04 0.05 0.04 0.03 0.03 0.03 0.03 0.03 0.03 0.03 0.03 0.02 0.02 0.04 0.05
0.01 0.00 0.01 0.01 0.01 0.01 0.01 0.01 0.02 0.03 0.04 0.05 0.06 0.06 0.06 0.06 0.05 0.04 0.04 0.05 0.05 0.05 0.04 0.03 0.03 0.04 0.03 0.03 0.03 0.03 0.04 0.03 0.03 0.03 0.03 0.03 0.03 0.03 0.03 0.03 0.02 0.03 0.06
0.00 0.00 0.00 0.01 0.01 0.01 0.01 0.01 0.02 0.03 0.03 0.04 0.05 0.07 0.07 0.05 0.04 0.04 0.03 0.04 0.05 0.05 0.05 0.04 0.04 0.04 0.03 0.03 0.03 0.03 0.03 0.03 0.03 0.03 0.03 0.03 0.02 0.02 0.02 0.02 0.02 0.02 0.04
0.00 0.00 0.00 0.01 0.01 0.01 0.01 0.01 0.01 0.02 0.02 0.03 0.04 0.05 0.07 0.07 0.05 0.04 0.03 0.03 0.04 0.05 0.05 0.05 0.05 0.05 0.04 0.04 0.04 0.03 0.03 0.03 0.03 0.03 0.03 0.03 0.03 0.02 0.02 0.02 0.02 0.02 0.02
0.00 0.00 0.00 0.01 0.01 0.01 0.01 0.02 0.01 0.01 0.01 0.03 0.04 0.03 0.03 0.05 0.06 0.06 0.05 0.04 0.04 0.04 0.05 0.05 0.05 0.05 0.04 0.04 0.04 0.04 0.04 0.04 0.04 0.03 0.03 0.03 0.04 0.03 0.03 0.02 0.02 0.02 0.02
0.00 0.00 0.00 0.01 0.01 0.01 0.01 0.02 0.02 0.01 0.01 0.02 0.03 0.04 0.03 0.03 0.04 0.05 0.06 0.05 0.05 0.04 0.04 0.05 0.05 0.04 0.04 0.04 0.04 0.04 0.05 0.05 0.04 0.03 0.03 0.03 0.03 0.03 0.03 0.03 0.02 0.02 0.01
0.00 0.00 0.00 0.01 0.01 0.01 0.01 0.02 0.02 0.01 0.01 0.01 0.02 0.04 0.04 0.03 0.02 0.03 0.03 0.05 0.06 0.05 0.05 0.05 0.05 0.05 0.04 0.03 0.03 0.04 0.05 0.05 0.05 0.05 0.04 0.03 0.03 0.03 0.03 0.03 0.03 0.02 0.02
0.00 0.00 0.00 0.01 0.01 0.01 0.02 0.02 0.03 0.03 0.01 0.01 0.01 0.02 0.04 0.05 0.04 0.03 0.02 0.03 0.04 0.05 0.05 0.05 0.05 0.04 0.04 0.04 0.04 0.04 0.05 0.05 0.06 0.06 0.06 0.05 0.04 0.03 0.03 0.03 0.03 0.03 0.03
0.00 0.00 0.01 0.01 0.01 0.01 0.02 0.02 0.03 0.04 0.02 0.02 0.01 0.02 0.02 0.04 0.05 0.04 0.02 0.02 0.02 0.03 0.04 0.04 0.04 0.04 0.04 0.05 0.05 0.04 0.05 0.05 0.06 0.06 0.06 0.06 0.06 0.05 0.04 0.03 0.02 0.02 0.03
0.01 0.01 0.01 0.01 0.01 0.01 0.02 0.02 0.03 0.04 0.03 0.02 0.02 0.02 0.02 0.02 0.03 0.04 0.04 0.03 0.03 0.03 0.04 0.04 0.04 0.04 0.05 0.05 0.04 0.04 0.05 0.05 0.05 0.05 0.05 0.05 0.05 0.05 0.05 0.04 0.03 0.03 0.02
0.01 0.01 0.01 0.01 0.01 0.01 0.02 0.03 0.03 0.04 0.03 0.03 0.02 0.02 0.02 0.02 0.02 0.03 0.04 0.04 0.03 0.03 0.04 0.04 0.04 0.04 0.05 0.05 0.05 0.04 0.04 0.05 0.05 0.05 0.05 0.05 0.05 0.04 0.04 0.04 0.04 0.03 0.02
0.02 0.02 0.02 0.02 0.01 0.01 0.02 0.04 0.04 0.03 0.03 0.02 0.02 0.02 0.02 0.02 0.02 0.02 0.04 0.04 0.04 0.04 0.04 0.04 0.03 0.03 0.04 0.04 0.04 0.05 0.04 0.03 0.04 0.04 0.04 0.04 0.04 0.04 0.04 0.04 0.03 0.03 0.02
0.03 0.03 0.03 0.02 0.02 0.02 0.02 0.04 0.05 0.03 0.03 0.03 0.02 0.02 0.01 0.02 0.02 0.02 0.03 0.04 0.05 0.04 0.03 0.03 0.03 0.03 0.03 0.04 0.04 0.04 0.04 0.03 0.03 0.03 0.03 0.04 0.04 0.04 0.04 0.04 0.03 0.03 0.02
0.03 0.03 0.03 0.02 0.02 0.02 0.03 0.04 0.05 0.04 0.03 0.03 0.02 0.02 0.02 0.02 0.02 0.03 0.03 0.03 0.05 0.06 0.05 0.03 0.03 0.02 0.03 0.04 0.04 0.03 0.03 0.03 0.03 0.03 0.02 0.02 0.03 0.04 0.04 0.04 0.03 0.03 0.02
0.02 0.03 0.03 0.02 0.02 0.02 0.03 0.04 0.05 0.05 0.04 0.03 0.03 0.03 0.03 0.03 0.03 0.03 0.03 0.03 0.04 0.05 0.06 0.05 0.04 0.03 0.03 0.03 0.03 0.03 0.03 0.03 0.03 0.03 0.02 0.02 0.02 0.03 0.03 0.03 0.04 0.03 0.03
0.02 0.02 0.02 0.02 0.03 0.03 0.03 0.04 0.05 0.05 0.05 0.04 0.03 0.03 0.04 0.04 0.03 0.03 0.03 0.04 0.04 0.04 0.05 0.06 0.05 0.04 0.04 0.04 0.03 0.04 0.04 0.04 0.04 0.03 0.02 0.02 0.03 0.03 0.03 0.02 0.03 0.03 0.03
0.02 0.02 0.02 0.02 0.03 0.04 0.04 0.04 0.04 0.04 0.04 0.05 0.04 0.03 0.04 0.04 0.04 0.04 0.04 0.04 0.04 0.04 0.04 0.05 0.06 0.05 0.04 0.03 0.03 0.03 0.04 0.04 0.04 0.04 0.04 0.04 0.03 0.03 0.03 0.02 0.03 0.03 0.02
0.02 0.02 0.02 0.02 0.03 0.04 0.04 0.04 0.04 0.04 0.04 0.04 0.04 0.03 0.03 0.04 0.05 0.05 0.05 0.04 0.04 0.04 0.04 0.04 0.04 0.04 0.05 0.04 0.03 0.03 0.03 0.03 0.03 0.03 0.04 0.04 0.03 0.03 0.02 0.02 0.02 0.02 0.02
0.02 0.02 0.02 0.02 0.02 0.03 0.03 0.04 0.04 0.03 0.03 0.03 0.03 0.03 0.03 0.04 0.05 0.05 0.05 0.05 0.04 0.04 0.04 0.04 0.04 0.04 0.04 0.04 0.03 0.03 0.03 0.03 0.03 0.04 0.03 0.02 0.02 0.01 0.02 0.02 0.02 0.02 0.02
MSLP
1008.67 1009.37 1010.12 1010.89 1011.64 1012.38 1013.09 1013.77 1014.45 1015.13 1015.81 1016.50 1017.18 1017.84 1018.46 1019.03 1019.55 1020.03 1020.46 1020.88 1021.30 1021.74 1022.20 1022.70 1023.23 1023.78 1024.35 1024.91 1025.47 1026.01 1026.54 1027.04 1027.53 1028.00 1028.45 1028.86 1029.24 1029.58 1029.85 1030.07 1030.22 1030.32 1030.37
1008.37 1009.05 1009.78 1010.53 1011.28 1012.03 1012.77 1013.51 1014.25 1015.00 1015.75 1016.49 1017.22 1017.91 1018.56 1019.14 1019.67 1020.15 1020.59 1021.02 1021.46 1021.91 1022.39 1022.90 1023.43 1023.97 1024.52 1025.06 1025.59 1026.11 1026.63 1027.13 1027.64 1028.13 1028.62 1029.08 1029.51 1029.90 1030.23 1030.49 1030.69 1030.82 1030.90
1008.02 1008.70 1009.43 1010.17 1010.92 1011.68 1012.44 1013.21 1013.99 1014.78 1015.58 1016.37 1017.13 1017.85 1018.52 1019.12 1019.66 1020.16 1020.63 1021.09 1021.55 1022.03 1022.53 1023.05 1023.57 1024.10 1024.62 1025.13 1025.62 1026.11 1026.60 1027.10 1027.60 1028.12 1028.63 1029.13 1029.61 1030.05 1030.43 1030.74 1030.98 1031.16 1031.27
1007.67 1008.39 1009.14 1009.89 1010.64 1011.40 1012.16 1012.93 1013.72 1014.53 1015.35 1016.15 1016.93 1017.67 1018.35 1018.97 1019.53 1020.06 1020.56 1021.05 1021.55 1022.06 1022.59 1023.12 1023.64 1024.15 1024.64 1025.11 1025.57 1026.02 1026.49 1026.97 1027.47 1027.99 1028.52 1029.05 1029.56 1030.03 1030.45 1030.80 1031.09 1031.31 1031.46
1007.36 1008.17 1008.97 1009.75 1010.50 1011.25 1011.98 1012.73 1013.50 1014.29 1015.08 1015.88 1016.65 1017.38 1018.07 1018.70 1019.29 1019.84 1020.38 1020.91 1021.45 1022.00 1022.55 1023.09 1023.62 1024.11 1024.58 1025.02 1025.45 1025.87 1026.31 1026.77 1027.26 1027.78 1028.32 1028.86 1029.38 1029.88 1030.32 1030.70 1031.02 1031.27 1031.47
1007.19 1008.11 1008.99 1009.81 1010.57 1011.29 1011.98 1012.67 1013.38 1014.10 1014.84 1015.59 1016.33 1017.04 1017.71 1018.35 1018.95 1019.53 1020.10 1020.67 1021.25 1021.83 1022.41 1022.96 1023.49 1023.98 1024.44 1024.86 1025.27 1025.67 1026.09 1026.54 1027.03 1027.54 1028.07 1028.61 1029.14 1029.63 1030.07 1030.46 1030.80 1031.08 1031.32
1007.23 1008.29 1009.25 1010.11 1010.87 1011.54 1012.17 1012.77 1013.38 1014.01 1014.66 1015.34 1016.01 1016.68 1017.33 1017.95 1018.56 1019.15 1019.74 1020.34 1020.95 1021.56 1022.16 1022.73 1023.27 1023.77 1024.22 1024.64 1025.03 1025.43 1025.85 1026.29 1026.77 1027.28 1027.80 1028.33 1028.84 1029.32 1029.76 1030.14 1030.48 1030.78 1031.04
1007.53 1008.72 1009.76 1010.65 1011.39 1012.00 1012.54 1013.03 1013.52 1014.03 1014.57 1015.15 1015.74 1016.35 1016.95 1017.54 1018.14 1018.73 1019.33 1019.95 1020.57 1021.20 1021.82 1022.41 1022.96 1023.46 1023.92 1024.35 1024.75 1025.16 1025.57 1026.02 1026.50 1027.00 1027.52 1028.03 1028.53 1028.98 1029.40 1029.77 1030.10 1030.40 1030.67
1008.10 1009.39 1010.49 1011.39 1012.09 1012.63 1013.06 1013.42 1013.78 1014.16 1014.58 1015.04 1015.54 1016.07 1016.61 1017.16 1017.72 1018.30 1018.89 1019.50 1020.13 1020.77 1021.39 1022.00 1022.57 1023.09 1023.57 1024.01 1024.43 1024.84 1025.27 1025.72 1026.20 1026.70 1027.21 1027.71 1028.19 1028.64 1029.03 1029.39 1029.71 1030.00 1030.28
1008.90 1010.25 1011.38 1012.26 1012.91 1013.36 1013.67 1013.91 1014.14 1014.39 1014.68 1015.03 1015.43 1015.87 1016.34 1016.82 1017.34 1017.87 1018.43 1019.03 1019.65 1020.28 1020.91 1021.53 1022.12 1022.66 1023.16 1023.62 1024.06 1024.49 1024.93 1025.39 1025.87 1026.37 1026.88 1027.37 1027.84 1028.27 1028.66 1029.01 1029.32 1029.61 1029.89
1009.85 1011.23 1012.34 1013.18 1013.75 1014.12 1014.33 1014.46 1014.56 1014.70 1014.88 1015.12 1015.41 1015.75 1016.13 1016.54 1016.99 1017.46 1017.98 1018.53 1019.13 1019.75 1020.39 1021.02 1021.62 1022.19 1022.71 1023.20 1023.65 1024.10 1024.54 1025.01 1025.49 1025.99 1026.49 1026.99 1027.46 1027.90 1028.29 1028.64 1028.95 1029.25 1029.52
1010.87 1012.22 1013.29 1014.06 1014.56 1014.84 1014.97 1015.01 1015.02 1015.06 1015.14 1015.28 1015.48 1015.72 1016.01 1016.32 1016.68 1017.08 1017.53 1018.03 1018.60 1019.20 1019.84 1020.48 1021.10 1021.70 1022.24 1022.75 1023.22 1023.67 1024.12 1024.58 1025.06 1025.56 1026.06 1026.57 1027.05 1027.50 1027.91 1028.28 1028.61 1028.90 1029.18
1011.88 1013.16 1014.15 1014.85 1015.29 1015.50 1015.56 1015.54 1015.49 1015.45 1015.46 1015.52 1015.62 1015.77 1015.94 1016.15 1016.41 1016.72 1017.09 1017.54 1018.06 1018.65 1019.28 1019.94 1020.58 1021.20 1021.77 1022.30 1022.78 1023.24 1023.68 1024.13 1024.60 1025.09 1025.60 1026.11 1026.61 1027.09 1027.52 1027.91 1028.26 1028.58 1028.87
1012.81 1013.99 1014.90 1015.52 1015.90 1016.06 1016.09 1016.03 1015.95 1015.87 1015.82 1015.81 1015.83 1015.87 1015.94 1016.04 1016.18 1016.39 1016.69 1017.07 1017.55 1018.12 1018.75 1019.42 1020.09 1020.73 1021.33 1021.87 1022.36 1022.82 1023.25 1023.69 1024.14 1024.62 1025.12 1025.64 1026.16 1026.66 1027.13 1027.55 1027.93 1028.26 1028.55
1013.66 1014.72 1015.52 1016.08 1016.40 1016.54 1016.55 1016.49 1016.39 1016.29 1016.21 1016.13 1016.07 1016.02 1015.98 1015.98 1016.01 1016.12 1016.33 1016.66 1017.10 1017.64 1018.27 1018.96 1019.65 1020.32 1020.94 1021.50 1022.00 1022.44 1022.86 1023.27 1023.71 1024.17 1024.66 1025.18 1025.72 1026.24 1026.73 1027.18 1027.58 1027.93 1028.22
1014.43 1015.35 1016.05 1016.53 1016.82 1016.94 1016.96 1016.90 1016.81 1016.71 1016.60 1016.48 1016.35 1016.22 1016.09 1015.98 1015.92 1015.94 1016.07 1016.34 1016.74 1017.28 1017.91 1018.61 1019.32 1020.01 1020.66 1021.22 1021.72 1022.15 1022.55 1022.94 1023.35 1023.78 1024.26 1024.78 1025.31 1025.84 1026.35 1026.82 1027.23 1027.58 1027.88
1015.15 1015.93 1016.52 1016.93 1017.18 1017.30 1017.32 1017.28 1017.21 1017.11 1016.98 1016.84 1016.66 1016.47 1016.26 1016.07 1015.93 1015.89 1015.96 1016.18 1016.56 1017.08 1017.71 1018.42 1019.15 1019.85 1020.50 1021.08 1021.57 1021.98 1022.36 1022.72 1023.09 1023.50 1023.95 1024.44 1024.97 1025.50 1026.01 1026.47 1026.88 1027.23 1027.51
1015.88 1016.50 1016.98 1017.31 1017.52 1017.62 1017.66 1017.63 1017.58 1017.49 1017.37 1017.21 1017.01 1016.78 1016.53 1016.29 1016.11 1016.02 1016.06 1016.26 1016.61 1017.12 1017.75 1018.45 1019.18 1019.89 1020.53 1021.09 1021.57 1021.96 1022.30 1022.63 1022.96 1023.33 1023.75 1024.21 1024.71 1025.22 1025.71 1026.16 1026.55 1026.88 1027.14
1016.62 1017.10 1017.46 1017.72 1017.88 1017.96 1017.99 1017.98 1017.94 1017.87 1017.76 1017.61 1017.42 1017.18 1016.92 1016.68 1016.49 1016.39 1016.42 1016.61 1016.96 1017.45 1018.06 1018.75 1019.46 1020.14 1020.76 1021.30 1021.74 1022.09 1022.40 1022.68 1022.97 1023.29 1023.66 1024.09 1024.55 1025.02 1025.48 1025.90 1026.26 1026.55 1026.78
1017.41 1017.74 1018.00 1018.17 1018.28 1018.34 1018.36 1018.35 1018.33 1018.28 1018.20 1018.07 1017.90 1017.70 1017.47 1017.26 1017.09 1017.02 1017.07 1017.26 1017.60 1018.08 1018.67 1019.32 1019.99 1020.62 1021.19 1021.68 1022.07 1022.38 1022.63 1022.86 1023.10 1023.37 1023.70 1024.07 1024.48 1024.90 1025.32 1025.69 1026.02 1026.27 1026.46
1018.21 1018.43 1018.59 1018.69 1018.74 1018.77 1018.78 1018.78 1018.77 1018.75 1018.70 1018.62 1018.50 1018.35 1018.19 1018.03 1017.93 1017.90 1017.99 1018.20 1018.54 1019.00 1019.54 1020.14 1020.74 1021.31 1021.81 1022.22 1022.54 1022.79 1022.98 1023.16 1023.34 1023.56 1023.83 1024.15 1024.50 1024.87 1025.23 1025.56 1025.84 1026.05 1026.21
1019.02 1019.15 1019.23 1019.27 1019.29 1019.29 1019.29 1019.29 1019.30 1019.30 1019.30 1019.27 1019.22 1019.14 1019.06 1018.99 1018.96 1019.00 1019.13 1019.36 1019.70 1020.13 1020.62 1021.15 1021.67 1022.15 1022.56 1022.88 1023.12 1023.30 1023.43 1023.55 1023.68 1023.85 1024.07 1024.33 1024.63 1024.94 1025.24 1025.52 1025.75 1025.92 1026.05
1019.81 1019.88 1019.92 1019.93 1019.92 1019.90 1019.90 1019.91 1019.93 1019.97 1020.00 1020.03 1020.05 1020.06 1020.06 1020.08 1020.14 1020.24 1020.42 1020.67 1021.00 1021.39 1021.83 1022.27 1022.70 1023.08 1023.39 1023.62 1023.78 1023.89 1023.96 1024.03 1024.11 1024.23 1024.40 1024.62 1024.86 1025.12 1025.37 1025.59 1025.77 1025.90 1025.99
1020.56 1020.62 1020.64 1020.64 1020.63 1020.61 1020.61 1020.63 1020.67 1020.73 1020.81 1020.89 1020.97 1021.05 1021.13 1021.23 1021.36 1021.52 1021.74 1022.01 1022.32 1022.68 1023.05 1023.42 1023.75 1024.03 1024.25 1024.39 1024.48 1024.53 1024.55 1024.58 1024.63 1024.72 1024.85 1025.02 1025.22 1025.43 1025.63 1025.80 1025.93 1026.01 1026.06
1021.28 1021.35 1021.39 1021.40 1021.39 1021.39 1021.40 1021.43 1021.49 1021.58 1021.68 1021.80 1021.93 1022.06 1022.21 1022.37 1022.55 1022.76 1023.01 1023.28 1023.58 1023.90 1024.21 1024.50 1024.76 1024.95 1025.09 1025.17 1025.21 1025.21 1025.20 1025.20 1025.24 1025.31 1025.42 1025.57 1025.74 1025.90 1026.06 1026.18 1026.25 1026.29 1026.30
1021.97 1022.06 1022.13 1022.16 1022.18 1022.20 1022.23 1022.28 1022.35 1022.45 1022.57 1022.71 1022.87 1023.04 1023.22 1023.42 1023.64 1023.87 1024.13 1024.41 1024.70 1024.98 1025.25 1025.49 1025.68 1025.82 1025.90 1025.94 1025.94 1025.93 1025.91 1025.92 1025.95 1026.03 1026.14 1026.27 1026.42 1026.55 1026.67 1026.74 1026.77 1026.75 1026.70
Thickness
5551 5551 5551 5551 5551 5552 5554 5556 5557 5558 5559 5561 5562 5562 5562 5563 5564 5564 5565 5566 5566 5566 5565 5564 5563 5562 5560 5559 5558 5556 5554 5552 5552 5549 5546 5545 5546 5546 5547 5547 5548 5548 5548
5542 5542 5541 5541 5541 5542 5544 5546 5548 5549 5551 5552 5553 5554 5554 5554 5556 5556 5556 5557 5557 5557 5557 5556 5555 5554 5552 5551 5550 5549 5546 5544 5545 5543 5540 5535 5534 5535 5537 5538 5539 5539 5539
5531 5531 5531 5530 5531 5532 5534 5537 5538 5539 5541 5542 5543 5544 5544 5544 5545 5546 5547 5548 5548 5549 5549 5548 5547 5546 5545 5544 5543 5542 5541 5539 5537 5538 5536 5532 5528 5524 5525 5527 5529 5529 5529
5521 5520 5521 5520 5521 5522 5524 5526 5527 5529 5530 5531 5532 5534 5534 5534 5536 5538 5538 5538 5539 5539 5539 5539 5538 5537 5537 5536 5535 5535 5535 5533 5530 5529 5529 5529 5526 5519 5514 5515 5517 5518 5519
5510 5510 5511 5511 5512 5512 5513 5514 5516 5518 5519 5520 5522 5523 5524 5525 5526 5528 5528 5528 5529 5529 5530 5529 5529 5529 5528 5528 5527 5526 5526 5526 5524 5522 5520 5520 5518 5516 5510 5506 5505 5506 5507
5499 5499 5500 5500 5500 5501 5502 5504 5506 5507 5509 5510 5511 5513 5514 5514 5515 5517 5517 5518 5519 5520 5520 5520 5520 5520 5520 5519 5519 5518 5518 5517 5517 5515 5514 5512 5511 5509 5506 5501 5497 5495 5495
5487 5488 5488 5488 5489 5489 5491 5492 5495 5497 5498 5499 5501 5502 5502 5503 5505 5507 5508 5508 5508 5510 5511 5511 5511 5511 5511 5510 5510 5509 5509 5509 5508 5507 5506 5505 5504 5503 5500 5496 5490 5487 5485
5476 5476 5476 5476 5476 5478 5479 5481 5483 5485 5487 5489 5490 5492 5493 5493 5494 5497 5498 5499 5499 5500 5501 5501 5501 5502 5501 5501 5500 5500 5499 5499 5498 5498 5497 5496 5495 5494 5491 5489 5484 5479 5475
5465 5464 5464 5464 5464 5465 5466 5469 5471 5474 5476 5479 5480 5482 5483 5483 5484 5486 5488 5488 5488 5489 5490 5491 5491 5491 5491 5491 5490 5490 5489 5488 5487 5487 5486 5485 5484 5483 5482 5481 5479 5474 5468
5454 5453 5452 5452 5452 5453 5454 5456 5459 5462 5465 5468 5470 5472 5473 5474 5475 5476 5477 5478 5478 5479 5479 5479 5480 5480 5480 5480 5480 5479 5478 5477 5476 5475 5474 5474 5473 5472 5471 5470 5469 5468 5465
5442 5440 5440 5440 5440 5441 5442 5444 5447 5451 5454 5457 5459 5461 5463 5463 5465 5466 5467 5467 5467 5467 5468 5468 5468 5469 5469 5469 5469 5468 5467 5465 5464 5463 5463 5462 5461 5460 5459 5458 5457 5456 5454
5430 5429 5428 5428 5428 5429 5431 5433 5436 5439 5443 5445 5447 5450 5452 5453 5454 5455 5456 5456 5456 5456 5457 5456 5457 5457 5458 5457 5457 5457 5456 5454 5453 5452 5451 5450 5449 5448 5447 5445 5444 5443 5442
5418 5417 5416 5416 5417 5418 5420 5422 5425 5428 5432 5434 5436 5438 5440 5441 5443 5444 5444 5444 5445 5445 5445 5445 5445 5446 5446 5446 5446 5445 5444 5443 5442 5441 5439 5438 5437 5436 5434 5433 5431 5430 5429
5406 5405 5404 5404 5405 5407 5409 5411 5414 5418 5420 5423 5425 5427 5428 5430 5431 5432 5432 5432 5433 5433 5433 5433 5433 5434 5434 5435 5434 5433 5432 5431 5430 5429 5427 5426 5425 5424 5422 5420 5419 5417 5415
5395 5394 5393 5393 5394 5397 5399 5401 5404 5407 5410 5412 5413 5415 5417 5418 5419 5420 5420 5420 5421 5421 5421 5420 5421 5421 5421 5422 5422 5420 5419 5418 5416 5415 5414 5413 5412 5411 5410 5408 5406 5405 5402
5383 5383 5382 5382 5383 5386 5388 5390 5393 5396 5399 5400 5402 5403 5405 5406 5406 5407 5407 5408 5408 5408 5408 5408 5408 5408 5409 5410 5409 5408 5406 5405 5404 5402 5401 5399 5398 5397 5396 5394 5394 5393 5390
5372 5371 5371 5371 5373 5374 5376 5378 5382 5385 5387 5388 5389 5391 5392 5393 5393 5394 5395 5395 5395 5395 5395 5395 5395 5395 5395 5396 5396 5395 5393 5391 5390 5389 5387 5385 5384 5383 5381 5379 5379 5378 5377
5362 5361 5360 5361 5362 5363 5365 5367 5370 5373 5374 5375 5376 5378 5379 5380 5381 5381 5381 5382 5382 5382 5382 5382 5382 5381 5381 5381 5381 5381 5379 5377 5376 5375 5373 5372 5370 5368 5367 5365 5363 5362 5361
5351 5350 5350 5351 5351 5352 5354 5357 5358 5360 5362 5363 5364 5366 5367 5368 5368 5368 5368 5369 5370 5370 5369 5369 5368 5368 5367 5367 5367 5367 5364 5363 5361 5360 5359 5357 5356 5355 5353 5351 5349 5347 5345
5341 5340 5340 5341 5342 5343 5344 5346 5347 5349 5351 5352 5353 5354 5355 5356 5356 5357 5356 5356 5357 5357 5356 5356 5355 5354 5353 5353 5353 5353 5351 5349 5347 5345 5344 5343 5341 5340 5339 5336 5334 5332 5330
5331 5331 5330 5331 5332 5333 5334 5335 5336 5338 5339 5340 5341 5341 5342 5343 5344 5344 5344 5343 5343 5343 5343 5342 5341 5340 5340 5339 5339 5338 5336 5335 5333 5331 5329 5328 5327 5326 5324 5322 5320 5318 5316
5321 5321 5320 5320 5320 5321 5322 5323 5324 5325 5326 5327 5328 5328 5329 5330 5330 5330 5330 5330 5330 5329 5328 5327 5326 5325 5324 5324 5324 5324 5323 5321 5319 5317 5315 5314 5313 5312 5310 5308 5306 5304 5302
5311 5311 5310 5309 5309 5310 5311 5311 5312 5313 5314 5314 5315 5315 5316 5316 5317 5317 5317 5316 5315 5315 5314 5313 5312 5311 5310 5309 5309 5309 5308 5307 5305 5303 5301 5300 5298 5297 5295 5294 5292 5289 5287
5302 5301 5299 5298 5298 5298 5299 5299 5300 5300 5301 5302 5302 5303 5303 5303 5302 5302 5303 5302 5301 5300 5299 5299 5298 5296 5295 5294 5294 5293 5292 5291 5290 5288 5287 5286 5283 5282 5280 5278 5276 5274 5272
5292 5291 5290 5289 5288 5287 5288 5288 5289 5289 5289 5289 5289 5289 5289 5289 5288 5288 5287 5288 5288 5287 5286 5284 5284 5283 5282 5282 5282 5281 5279 5277 5275 5274 5272 5269 5267 5266 5264 5262 5261 5259 5258
5282 5281 5279 5278 5276 5276 5276 5276 5276 5277 5276 5276 5276 5275 5275 5275 5275 5274 5273 5273 5274 5274 5273 5273 5272 5271 5270 5270 5270 5269 5268 5266 5264 5261 5258 5255 5253 5252 5250 5248 5247 5246 5244